Galesburg, IL

12:42 PM CDT on August 17, 2019 (GMT -0500)
Galesburg Municipal

Weather History for KGBG - May, 2019

Change the Weather History Date:

Tuesday, May 21, 2019

  Actual Average Record
Temperature  
Mean Temperature 50 °F -  
Max Temperature 56 °F 74 °F 92 °F (1987)
Min Temperature 44 °F 53 °F 33 °F (2002)
Degree Days  
Heating Degree Days 15    
Moisture  
Dew Point 47 °F    
Average Humidity 87    
Maximum Humidity 99    
Minimum Humidity 76    
Precipitation  
Precipitation 1.43 in - - ()
Sea Level Pressure  
Sea Level Pressure 29.91 in    
Wind  
Wind Speed 14 mph (East)    
Max Wind Speed 30 mph    
Max Gust Speed 38 mph    
Visibility 9 miles    
Events Rain , Thunderstorm    
Averages and records for this station are not official NWS values.
T = Trace of Precipitation, MM = Missing Value Source: NWS Daily Summary

Daily Weather History Graph

Daily Weather History Graph

Search for Another Location

Airport or City:

Astronomy

May. 21, 2019 Rise Set
Actual Time 5:39 AM CDT 8:18 PM CDT
Civil Twilight 5:07 AM CDT 8:50 PM CDT
Nautical Twilight 4:27 AM CDT 9:29 PM CDT
Astronomical Twilight 3:42 AM CDT 10:15 PM CDT
Moon 11:14 PM CDT (5/21) 7:54 AM CDT (5/21)
Length of Visible Light 15h 42m
Length of Day
14h 39m
Waning Gibbous, 91% of the Moon is Illuminated
May 21
Waning Gibbous
May 26
Last Quarter
Jun 3
New
Jun 10
First Quarter
Jun 17
Full

Hourly Weather History & Observations

Time (CDT) Temp. Windchill Dew Point Humidity Pressure Visibility Wind Dir Wind Speed Gust Speed Precip Events Conditions
12:15 AM 48.4 °F - 46.4 °F 93% 30.12 in 5.0 mi East 5.8 mph - 0.07 in Rain Rain
12:35 AM 48.2 °F - 46.2 °F 93% 30.11 in 3.0 mi East 10.4 mph 17.3 mph 0.18 in Rain Light Rain
12:55 AM 47.7 °F - 45.5 °F 92% 30.08 in 7.0 mi East 10.4 mph 19.6 mph 0.24 in Rain Rain
1:15 AM 47.7 °F - 45.7 °F 93% 30.06 in 7.0 mi East 12.7 mph 18.4 mph 0.05 in Rain Rain
1:35 AM 47.5 °F - 46.2 °F 95% 30.05 in 7.0 mi East 10.4 mph 17.3 mph 0.12 in Rain Rain
1:55 AM 47.3 °F - 46.4 °F 97% 30.04 in 7.0 mi East 13.8 mph 23.0 mph 0.17 in Rain Light Rain
2:15 AM 46.6 °F - 44.8 °F 93% 30.04 in 10.0 mi East 12.7 mph 23.0 mph 0.02 in Rain Light Rain
2:35 AM 46.0 °F 40.2 °F 43.9 °F 92% 30.06 in 10.0 mi East 12.7 mph 20.7 mph 0.04 in Rain Light Rain
2:55 AM 45.5 °F 38.6 °F 43.7 °F 93% 30.04 in 10.0 mi East 16.1 mph 25.3 mph 0.06 in Rain Rain
3:15 AM 45.0 °F 37.1 °F 42.8 °F 92% 30.03 in 4.0 mi East 19.6 mph 26.5 mph 0.07 in Rain Light Rain
3:35 AM 44.6 °F 37.4 °F 42.8 °F 93% 30.03 in 4.0 mi East 16.1 mph 24.2 mph 0.18 in Rain Heavy Rain
3:55 AM 44.8 °F 37.7 °F 43.0 °F 93% 30.03 in 7.0 mi East 16.1 mph 25.3 mph 0.25 in Rain Light Rain
4:15 AM 45.0 °F 38.5 °F 43.2 °F 93% 30.04 in 10.0 mi East 13.8 mph 24.2 mph 0.01 in Rain Light Rain
4:35 AM 45.1 °F 39.1 °F 43.3 °F 93% 30.05 in 10.0 mi East 12.7 mph 23.0 mph 0.02 in Rain Rain
4:55 AM 45.3 °F 39.0 °F 43.5 °F 93% 30.04 in 10.0 mi East 13.8 mph 25.3 mph 0.03 in Rain Light Rain
5:15 AM 45.1 °F 38.1 °F 43.3 °F 93% 30.03 in 10.0 mi East 16.1 mph 25.3 mph 0.01 in Rain Rain
5:55 AM 44.8 °F 37.7 °F 42.8 °F 93% 30.00 in 10.0 mi East 16.1 mph 24.2 mph 0.01 in   Overcast
6:15 AM 45.0 °F 38.5 °F 42.8 °F 92% 30.01 in 10.0 mi East 13.8 mph 23.0 mph N/A Rain Light Rain
6:35 AM 45.1 °F 39.5 °F 42.8 °F 91% 30.01 in 10.0 mi East 11.5 mph 19.6 mph N/A Rain Light Rain
6:55 AM 45.1 °F 40.3 °F 43.2 °F 93% 30.01 in 10.0 mi East 9.2 mph 16.1 mph N/A   Drizzle
7:15 AM 45.5 °F 39.9 °F 43.3 °F 92% 30.00 in 10.0 mi East 11.5 mph 17.3 mph N/A Rain Light Rain
7:35 AM 45.5 °F 39.9 °F 43.3 °F 92% 30.00 in 10.0 mi East 11.5 mph 18.4 mph N/A   Overcast
7:55 AM 45.9 °F 40.0 °F 43.7 °F 92% 29.99 in 10.0 mi East 12.7 mph 16.1 mph N/A   Overcast
8:15 AM 46.4 °F 41.5 °F 43.5 °F 90% 30.00 in 10.0 mi East 10.4 mph 20.7 mph N/A   Overcast
8:35 AM 46.8 °F - 43.9 °F 90% 29.98 in 10.0 mi East 13.8 mph 21.9 mph N/A   Overcast
8:55 AM 47.3 °F - 43.9 °F 88% 29.99 in 10.0 mi East 13.8 mph 19.6 mph N/A   Overcast
9:15 AM 47.3 °F - 43.9 °F 88% 29.99 in 10.0 mi East 13.8 mph 24.2 mph N/A   Overcast
9:35 AM 47.8 °F - 43.9 °F 86% 30.00 in 10.0 mi East 13.8 mph 27.6 mph N/A   Overcast
9:55 AM 48.2 °F - 44.1 °F 86% 30.00 in 10.0 mi East 15.0 mph 23.0 mph N/A   Overcast
10:15 AM 48.4 °F - 44.1 °F 85% 30.01 in 10.0 mi East 12.7 mph 20.7 mph N/A   Overcast
10:35 AM 48.9 °F - 44.4 °F 84% 30.00 in 10.0 mi East 12.7 mph 23.0 mph N/A   Overcast
10:55 AM 49.3 °F - 44.4 °F 83% 29.98 in 10.0 mi East 16.1 mph 24.2 mph N/A   Overcast
11:15 AM 49.5 °F - 44.4 °F 83% 29.97 in 10.0 mi East 12.7 mph 20.7 mph N/A   Overcast
11:35 AM 50.0 °F - 44.8 °F 82% 29.96 in 10.0 mi East 16.1 mph 23.0 mph N/A   Overcast
11:55 AM 50.4 °F - 45.0 °F 82% 29.94 in 10.0 mi East 19.6 mph 24.2 mph N/A   Overcast
12:15 PM 51.1 °F - 45.5 °F 81% 29.93 in 10.0 mi East 17.3 mph 25.3 mph N/A   Overcast
12:35 PM 51.3 °F - 45.5 °F 81% 29.92 in 10.0 mi East 17.3 mph 26.5 mph N/A   Overcast
12:55 PM 51.8 °F - 45.9 °F 80% 29.91 in 10.0 mi East 19.6 mph 24.2 mph N/A   Overcast
1:15 PM 52.3 °F - 46.0 °F 79% 29.90 in 10.0 mi East 18.4 mph 28.8 mph N/A   Overcast
1:35 PM 52.7 °F - 46.2 °F 79% 29.90 in 10.0 mi East 19.6 mph 26.5 mph N/A   Overcast
1:55 PM 52.9 °F - 46.4 °F 79% 29.89 in 10.0 mi East 19.6 mph 27.6 mph N/A   Overcast
2:15 PM 53.2 °F - 46.9 °F 79% 29.88 in 10.0 mi East 19.6 mph 31.1 mph N/A   Overcast
2:35 PM 54.1 °F - 47.7 °F 79% 29.87 in 10.0 mi East 16.1 mph 25.3 mph N/A   Overcast
2:55 PM 54.5 °F - 47.8 °F 78% 29.86 in 10.0 mi East 20.7 mph 27.6 mph N/A   Overcast
3:15 PM 54.7 °F - 47.7 °F 77% 29.85 in 10.0 mi East 16.1 mph 28.8 mph N/A   Overcast
3:35 PM 55.4 °F - 48.6 °F 78% 29.83 in 10.0 mi East 17.3 mph 26.5 mph N/A   Overcast
3:55 PM 55.6 °F - 48.6 °F 77% 29.81 in 10.0 mi East 19.6 mph 27.6 mph N/A   Overcast
4:15 PM 55.4 °F - 48.7 °F 78% 29.80 in 10.0 mi East 18.4 mph 27.6 mph N/A   Overcast
4:35 PM 55.4 °F - 48.7 °F 78% 29.80 in 10.0 mi East 17.3 mph 26.5 mph N/A   Overcast
4:55 PM 55.6 °F - 48.9 °F 78% 29.78 in 10.0 mi East 16.1 mph 27.6 mph N/A   Overcast
5:15 PM 55.9 °F - 48.9 °F 77% 29.78 in 10.0 mi East 18.4 mph 29.9 mph N/A   Overcast
5:35 PM 56.3 °F - 48.9 °F 76% 29.77 in 10.0 mi East 17.3 mph 27.6 mph N/A   Overcast
5:55 PM 56.5 °F - 49.1 °F 76% 29.75 in 10.0 mi East 19.6 mph 27.6 mph N/A   Overcast
6:15 PM 56.5 °F - 48.9 °F 76% 29.74 in 10.0 mi East 21.9 mph 31.1 mph N/A   Overcast
6:35 PM 56.5 °F - 49.1 °F 76% 29.75 in 10.0 mi East 18.4 mph 29.9 mph N/A   Overcast
6:55 PM 56.3 °F - 49.3 °F 77% 29.72 in 10.0 mi East 21.9 mph 31.1 mph N/A   Overcast
7:15 PM 56.5 °F - 49.5 °F 77% 29.73 in 10.0 mi East 16.1 mph 29.9 mph N/A   Overcast
7:35 PM 56.3 °F - 49.8 °F 79% 29.74 in 10.0 mi East 16.1 mph 27.6 mph N/A Rain Light Rain
7:55 PM 55.4 °F - 50.4 °F 83% 29.72 in 10.0 mi East 16.1 mph 26.5 mph 0.01 in Rain Light Rain
8:15 PM 54.7 °F - 50.7 °F 86% 29.72 in 5.0 mi East 17.3 mph 24.2 mph 0.04 in Rain , Thunderstorm Rain
8:35 PM 54.5 °F - 51.8 °F 91% 29.83 in 2.0 mi WSW 15.0 mph 18.4 mph 0.27 in Rain Heavy Rain
8:55 PM 54.5 °F - 53.8 °F 97% 29.82 in 5.0 mi ESE 5.8 mph - 0.33 in Rain Rain
9:15 PM 54.7 °F - 54.1 °F 98% 29.79 in 5.0 mi East 9.2 mph - 0.06 in Rain Heavy Rain
9:35 PM 54.5 °F - 54.1 °F 99% 29.80 in 4.0 mi East 10.4 mph 16.1 mph 0.16 in Rain Heavy Rain
9:55 PM 54.5 °F - 54.3 °F 99% 29.75 in 7.0 mi East 13.8 mph 19.6 mph 0.20 in Rain Light Rain
10:15 PM 54.5 °F - 54.1 °F 99% 29.74 in 5.0 mi East 15.0 mph 21.9 mph 0.07 in Rain Rain
10:35 PM 55.0 °F - 54.9 °F 99% 29.64 in 7.0 mi East 29.9 mph 38.0 mph 0.11 in Rain Rain
10:55 PM 55.6 °F - 55.4 °F 99% 29.69 in 10.0 mi ESE 16.1 mph 28.8 mph 0.13 in Rain Light Rain
11:15 PM 56.3 °F - 55.9 °F 99% 29.72 in 10.0 mi ESE 16.1 mph 23.0 mph N/A   Overcast
11:35 PM 56.3 °F - 55.8 °F 98% 29.75 in 10.0 mi ESE 9.2 mph 24.2 mph N/A   Overcast
11:55 PM 56.3 °F - 55.8 °F 98% 29.74 in 10.0 mi ESE 11.5 mph 20.7 mph N/A   Overcast